Date,TemperatureHighF,TemperatureAvgF,TemperatureLowF,DewpointHighF,DewpointAvgF,DewpointLowF,HumidityHigh,HumidityAvg,HumidityLow,PressureMaxIn,PressureMinIn,WindSpeedMaxMPH,WindSpeedAvgMPH,GustSpeedMaxMPH,PrecipitationSumIn
2013-8-3,66.9,64.4,61.8,52.9,52.3,51.8,70,65,60,29.74,29.72,4,0,0,0.00
2013-8-4,88.0,68.7,54.8,56.4,51.5,45.4,81,58,25,29.82,29.72,11,1,0,0.00
2013-8-5,89.9,67.9,52.2,54.7,49.9,41.4,85,58,19,29.85,29.72,9,1,0,0.00
2013-8-6,85.5,66.3,51.7,54.8,50.8,47.0,86,61,27,29.84,29.75,11,1,0,0.00
2013-8-7,81.1,66.9,56.2,55.5,52.8,50.1,80,62,40,29.91,29.80,12,1,12,0.00
2013-8-8,84.3,67.0,55.6,56.5,52.0,46.6,85,62,28,29.86,29.72,13,1,13,0.00
2013-8-9,83.2,66.3,53.3,55.9,51.9,48.2,85,63,31,29.78,29.71,11,1,0,0.00
2013-8-10,87.6,68.3,54.2,57.8,53.4,49.7,85,62,31,29.87,29.77,11,0,0,0.00
2013-8-11,90.1,70.9,55.1,57.3,53.3,49.0,87,59,26,29.85,29.71,8,0,0,0.00
2013-8-12,91.4,71.3,55.1,56.2,51.1,39.0,86,55,17,29.82,29.72,7,0,0,0.00
2013-8-13,97.1,74.4,54.1,55.4,49.7,40.4,86,50,15,29.83,29.69,7,0,0,0.00
2013-8-14,95.6,74.8,57.3,61.6,51.3,38.0,79,49,20,29.80,29.67,10,0,0,0.00
2013-8-15,97.1,76.3,60.4,69.2,47.9,-99.9,86,53,19,29.78,29.69,8,0,0,0.00
2013-8-16,97.1,77.4,62.0,66.4,52.0,-99.9,87,55,24,29.81,29.71,7,0,0,0.00
2013-8-17,98.2,74.5,61.6,67.4,46.0,-99.9,80,55,21,29.81,29.63,10,1,0,0.00
2013-8-18,101.2,79.7,60.5,74.4,58.4,51.1,83,53,23,29.72,29.58,7,0,0,0.00
2013-8-19,106.2,83.6,69.1,73.1,59.9,52.0,70,49,18,29.72,29.58,8,0,0,0.00
2013-8-20,96.3,78.2,66.3,62.8,56.7,49.5,69,50,28,29.70,29.58,8,1,0,0.00
2013-8-21,91.6,73.7,61.0,65.9,50.5,30.1,75,49,20,29.73,29.64,10,1,0,0.00
2013-8-22,88.4,70.7,57.6,69.3,51.2,36.4,76,54,26,29.75,29.64,13,1,13,0.00
2013-8-23,90.1,69.7,53.2,61.2,52.8,42.6,86,59,23,29.75,29.57,8,0,0,0.00
2013-8-24,90.5,71.9,57.2,71.2,54.8,48.4,81,59,26,29.69,29.61,18,1,18,0.00
2013-8-25,87.0,73.6,63.1,63.7,56.3,51.8,80,58,31,29.76,29.67,12,1,12,0.00
2013-8-26,90.5,72.2,59.0,67.7,53.5,43.5,84,57,24,29.83,29.70,6,0,0,0.00
2013-8-27,93.4,72.2,55.3,57.7,48.5,26.1,84,51,18,29.72,29.59,8,1,0,0.00
2013-8-28,93.6,73.9,58.9,59.3,39.1,-99.9,82,57,25,29.74,29.64,7,0,0,0.00
2013-8-29,93.4,75.1,60.5,63.6,41.1,-99.9,85,58,27,29.86,29.72,10,0,0,0.00
2013-8-30,99.9,77.8,59.9,62.7,55.9,46.8,87,54,18,29.88,29.71,6,0,0,0.00
2013-8-31,94.3,75.7,60.4,58.6,52.6,40.5,84,50,16,29.78,29.67,12,1,12,0.00
2013-9-1,91.6,73.8,61.2,58.0,52.6,43.8,73,51,21,29.75,29.66,12,1,12,0.00
2013-9-2,87.0,74.9,67.6,60.1,57.5,52.6,71,57,33,29.77,29.68,9,1,0,0.00
2013-9-3,86.7,72.5,60.7,57.3,52.5,44.2,79,54,24,29.81,29.72,11,1,12,0.00
2013-9-4,89.9,70.6,57.5,57.0,53.3,45.8,84,59,24,29.86,29.73,11,1,0,0.00
2013-9-5,90.7,71.7,58.7,55.5,52.6,46.3,82,56,22,29.83,29.73,11,1,0,0.00
2013-9-6,92.9,73.6,57.2,53.0,46.1,31.9,83,45,12,29.83,29.66,16,2,17,0.00
2013-9-7,101.2,77.3,56.0,51.2,44.3,37.5,63,36,12,29.74,29.61,7,0,0,0.00
2013-9-8,104.9,80.4,58.9,52.7,47.7,36.5,73,38,10,29.70,29.55,11,1,0,0.00
2013-9-9,106.2,82.2,61.3,55.8,49.3,41.4,70,38,12,29.63,29.46,13,1,13,0.00
2013-9-10,89.9,72.6,61.2,58.3,55.2,51.6,75,57,28,29.65,29.50,10,1,0,0.00
2013-9-11,82.2,69.3,58.9,58.4,55.7,53.2,84,64,42,29.82,29.65,10,0,0,0.00
2013-9-12,89.5,70.3,58.1,59.5,55.6,50.3,86,63,27,29.83,29.66,10,0,0,0.00
2013-9-13,92.3,72.3,58.7,58.9,55.0,51.9,84,59,27,29.72,29.52,6,0,0,0.00
2013-9-14,89.0,70.4,57.3,56.7,53.7,51.1,82,59,31,29.63,29.50,9,0,0,0.00
2013-9-15,90.3,70.2,55.6,55.5,51.8,46.6,83,57,23,29.66,29.54,10,1,0,0.00
2013-9-16,89.0,70.1,56.0,58.3,54.0,47.6,88,61,26,29.74,29.57,7,1,0,0.00
2013-9-17,84.5,69.5,58.1,53.5,50.6,44.7,76,54,27,29.71,29.59,17,1,17,0.00
2013-9-18,87.0,72.4,61.8,51.1,40.4,30.7,64,34,14,29.76,29.63,19,3,19,0.00
2013-9-19,95.1,70.8,51.7,48.2,43.1,36.2,77,43,14,29.71,29.56,7,0,0,0.00
2013-9-20,85.7,68.7,55.4,57.7,49.3,38.8,76,53,23,29.67,29.56,12,2,14,0.00
2013-9-21,65.8,61.9,55.7,59.0,55.9,50.0,91,81,71,29.75,29.64,18,1,18,0.68
2013-9-22,77.0,62.5,52.6,55.6,52.2,49.5,90,72,42,29.86,29.75,7,0,0,0.01
2013-9-23,85.7,67.9,53.3,57.8,53.0,47.3,90,64,28,29.88,29.75,6,0,0,0.00
2013-9-24,83.2,68.4,58.0,56.1,51.3,45.8,86,58,28,29.80,29.66,13,1,13,0.00
2013-9-25,76.1,63.2,52.6,48.0,41.4,32.5,74,48,22,29.78,29.64,18,1,18,0.00
2013-9-26,76.0,64.7,55.1,39.1,34.4,-99.9,50,35,19,29.83,29.68,22,5,22,0.00
2013-9-27,79.0,66.2,56.2,40.7,34.4,28.6,55,32,17,29.95,29.83,19,2,19,0.00
2013-9-28,84.1,66.1,48.5,52.1,39.8,29.5,75,44,15,29.96,29.81,8,0,0,0.00
2013-9-29,77.6,66.7,57.3,58.1,55.1,50.8,80,67,47,29.95,29.86,13,1,13,0.00
2013-9-30,77.9,68.7,62.4,59.9,58.2,55.1,86,70,50,29.92,29.79,11,1,0,0.00
2013-10-1,78.1,62.9,49.5,55.2,47.1,39.1,85,60,26,29.86,29.76,10,0,0,0.00
2013-10-2,80.7,66.8,55.3,49.0,41.3,30.7,73,42,23,29.85,29.75,11,1,0,0.00
2013-10-3,73.3,64.8,56.7,34.3,30.7,26.8,41,29,18,29.90,29.79,29,7,29,0.00
2013-10-4,80.7,68.0,58.7,31.1,27.9,24.0,33,23,14,29.97,29.86,25,7,25,0.00
2013-10-5,87.0,67.8,54.8,40.6,29.3,23.3,52,26,11,30.08,29.96,12,1,12,0.00
2013-10-6,87.2,63.8,44.9,47.8,36.9,26.5,68,42,13,30.01,29.84,6,0,0,0.00
2013-10-7,86.7,66.6,48.5,44.5,38.7,31.3,75,42,14,29.85,29.69,7,0,0,0.00
2013-10-8,80.3,66.3,57.3,41.5,35.1,27.8,54,33,16,29.75,29.52,24,3,24,0.00
2013-10-9,74.9,65.3,56.5,39.1,34.1,28.6,45,32,22,29.59,29.44,21,3,21,0.00
2013-10-10,77.0,62.6,51.3,45.5,41.2,30.2,75,49,22,29.83,29.59,14,0,14,0.00
2013-10-11,77.2,59.9,44.9,47.7,42.2,-99.9,86,60,27,29.93,29.80,7,0,0,0.00
2013-10-12,77.6,59.4,44.3,48.9,43.2,37.8,87,60,25,29.86,29.70,12,1,12,0.00
2013-10-13,75.3,63.3,55.3,46.6,37.8,32.1,64,41,21,29.90,29.74,19,4,19,0.00
2013-10-14,78.1,62.3,51.0,39.5,35.8,28.7,60,40,17,29.99,29.86,14,1,14,0.00
2013-10-15,80.7,66.5,49.8,37.2,30.5,25.3,55,28,15,29.92,29.80,20,3,20,0.00
2013-10-16,83.0,62.7,46.4,46.2,35.5,26.7,65,40,16,29.97,29.83,4,0,0,0.00
2013-10-17,85.1,62.5,45.2,42.6,36.1,30.6,70,42,15,29.95,29.80,10,0,0,0.00
2013-10-18,85.1,62.3,45.5,44.9,38.3,32.8,74,46,16,29.92,29.81,3,0,0,0.00
2013-10-19,87.0,64.3,47.4,44.7,38.2,34.5,70,44,16,29.94,29.83,8,0,0,0.00
2013-10-22,64.0,59.6,55.7,47.4,45.5,43.3,64,60,54,29.77,29.75,0,0,0,0.00
2013-10-23,88.0,63.5,46.4,47.0,40.6,31.6,76,50,14,29.81,29.69,7,0,0,0.00
2013-10-24,74.2,57.4,43.6,49.4,44.6,39.7,86,65,36,29.89,29.75,6,0,0,0.00
2013-10-25,77.6,57.6,43.3,50.0,41.4,-99.9,88,66,28,30.03,29.89,10,0,0,0.00
2013-10-26,52.9,50.0,47.9,45.8,44.3,43.4,86,81,74,29.98,29.95,0,0,0,0.00
2013-11-6,73.9,61.0,44.8,40.9,32.1,-99.9,67,43,20,30.15,30.03,3,0,0,0.00
2013-11-7,75.3,59.0,47.4,41.6,38.2,34.4,73,49,23,30.05,29.90,6,0,0,0.00
2013-11-8,77.2,57.9,43.8,45.1,40.1,32.2,82,57,24,29.94,29.79,3,0,0,0.00
2013-11-9,75.8,57.1,44.1,45.7,41.6,37.8,85,60,27,29.91,29.83,6,0,0,0.00
2013-11-10,74.9,55.8,43.8,46.5,36.0,-99.9,83,63,28,29.97,29.89,3,0,0,0.00
2013-11-11,70.3,54.2,40.1,47.6,41.4,35.4,84,65,32,30.03,29.94,6,0,0,0.00
2013-11-12,72.1,59.5,49.9,49.2,42.4,31.5,72,55,31,30.12,30.01,7,0,0,0.00
2013-11-13,70.4,54.7,42.9,45.4,-32.7,-99.9,78,58,38,30.10,29.91,0,0,0,0.00
2013-11-14,61.6,50.3,45.7,48.4,-20.5,-99.9,88,76,52,29.94,29.68,3,0,0,0.00
2013-11-15,68.3,55.1,43.9,41.8,7.2,-99.9,89,47,22,29.69,29.56,22,2,22,0.00
2013-11-16,66.1,53.2,45.4,50.9,-13.7,-99.9,83,61,32,29.77,29.59,6,0,0,0.00
2013-11-17,66.0,50.0,37.9,45.7,-27.5,-99.9,86,73,46,29.94,29.77,5,0,0,0.00
2013-11-18,61.0,50.4,39.5,51.0,-11.1,-99.9,85,71,48,30.01,29.91,6,0,0,0.00
2013-11-19,59.3,54.8,50.1,54.0,49.1,43.2,91,81,71,29.96,29.81,7,0,0,0.03
2013-11-20,58.4,55.5,53.6,55.8,53.1,51.3,92,92,91,29.82,29.69,10,1,0,0.01
2013-11-21,59.2,53.3,49.8,51.3,30.2,18.0,92,45,24,29.89,29.75,28,8,32,0.01
2013-11-22,69.4,57.1,48.3,23.1,17.4,12.8,29,21,12,29.92,29.77,26,8,26,0.00
2013-11-23,63.4,49.9,38.3,42.3,11.8,-99.9,88,60,29,29.98,29.86,7,0,0,0.00
2013-11-24,63.2,47.3,36.6,43.5,14.6,-99.9,90,71,47,30.12,29.97,3,0,0,0.00
2013-11-25,63.1,47.4,36.9,43.4,12.4,-99.9,86,70,43,30.21,30.12,6,0,0,0.00
2013-11-26,60.2,48.4,39.1,41.6,-7.7,-99.9,84,68,39,30.15,29.93,6,0,0,0.00
2013-11-27,62.3,50.8,41.3,43.6,6.3,-99.9,76,61,43,29.93,29.73,11,1,0,0.00
2013-11-28,70.1,55.6,45.4,52.5,-1.0,-99.9,74,54,28,29.92,29.75,10,1,0,0.00
2013-11-29,70.3,52.3,39.8,50.2,-31.4,-99.9,76,51,33,30.07,29.92,6,0,0,0.00
2013-11-30,68.3,50.6,40.1,52.5,-19.3,-99.9,86,62,43,30.15,30.05,6,0,0,0.00
2013-12-1,68.8,51.2,37.9,58.7,11.9,-99.9,88,69,39,30.22,30.08,3,0,0,0.00
2013-12-2,67.3,51.9,39.2,50.9,-22.0,-99.9,87,68,46,30.09,29.75,11,1,0,0.00
2013-12-3,58.3,52.2,43.2,49.7,9.4,-99.9,73,42,18,29.80,29.66,21,3,21,0.00
2013-12-4,49.6,40.2,29.5,19.1,-17.4,-99.9,47,31,17,29.95,29.80,19,2,19,0.00
2013-12-5,48.9,38.7,29.5,19.9,0.5,-99.9,61,36,20,30.04,29.95,14,2,14,0.00
2013-12-6,44.5,38.5,26.1,36.0,-17.4,-99.9,86,60,49,30.08,29.77,12,1,0,0.03
2013-12-7,46.2,38.1,30.3,36.4,-0.7,-99.9,90,74,48,30.12,29.76,11,1,0,0.05
2013-12-8,41.9,34.2,29.7,27.0,2.5,-99.9,86,58,37,30.21,30.11,18,2,18,0.07
2013-12-9,49.4,37.4,28.2,23.4,0.2,-99.9,79,40,28,30.31,30.18,14,2,14,0.04
2013-12-10,52.8,38.1,26.7,31.5,-4.5,-99.9,79,57,30,30.31,30.08,8,1,0,0.04
2013-12-11,56.2,39.2,27.3,37.3,18.8,-99.9,84,64,31,30.15,30.06,5,0,0,0.00
2013-12-12,60.4,41.7,28.5,34.8,15.6,-99.9,82,65,29,30.15,30.03,7,0,0,0.00
2013-12-13,62.1,43.5,30.1,36.2,29.3,19.5,86,62,27,30.20,30.09,10,1,0,0.00
2013-12-14,60.9,43.5,30.6,38.2,31.6,26.4,87,66,33,30.30,30.18,6,0,0,0.00
2013-12-15,62.4,44.0,32.4,38.8,27.3,-99.9,87,67,33,30.25,30.12,6,0,0,0.00
2013-12-16,65.0,45.9,33.2,39.8,30.4,-99.9,85,65,28,30.14,30.00,3,0,0,0.00
2013-12-17,62.7,46.6,35.6,40.1,34.6,30.4,82,65,35,30.07,29.91,6,0,0,0.00
2013-12-18,65.0,48.8,38.8,41.6,27.3,-99.9,83,61,30,29.91,29.56,7,0,0,0.00
2013-12-19,58.3,49.1,37.9,39.2,18.4,-99.9,86,44,21,29.79,29.55,29,6,29,0.00
2013-12-20,64.3,50.6,43.6,25.9,10.7,-99.9,49,22,9,29.87,29.78,19,4,19,0.00
2013-12-21,63.1,45.9,34.0,36.9,23.3,-99.9,81,56,25,29.97,29.83,8,0,0,0.00
2013-12-22,62.3,46.2,32.5,47.8,28.3,-99.9,83,62,33,30.16,29.97,3,0,0,0.00
2013-12-23,63.2,47.1,34.0,43.5,29.3,-99.9,83,64,38,30.29,30.16,6,0,0,0.00
2013-12-24,66.3,44.9,36.8,42.3,20.4,-99.9,82,69,42,30.20,30.09,13,1,13,0.30
2013-12-25,64.3,52.4,38.3,44.0,39.7,31.7,81,63,44,30.27,30.17,6,1,8,0.00
2013-12-26,67.4,46.3,31.9,38.9,32.8,27.5,85,63,30,30.25,30.15,9,1,9,0.00
2013-12-27,58.4,44.3,32.5,38.9,32.8,26.2,84,66,43,30.22,30.08,9,1,10,0.00
2013-12-28,69.7,51.5,32.0,33.3,28.0,20.0,83,47,22,30.11,29.96,20,4,25,0.00
2013-12-29,64.7,49.6,36.3,38.1,31.7,20.7,77,53,23,30.17,30.04,11,1,19,0.00
2013-12-30,62.8,46.3,32.5,37.8,33.2,26.7,82,63,37,30.24,30.16,8,1,8,0.00
2013-12-31,65.0,48.0,37.9,34.9,31.6,27.7,78,56,28,30.24,30.11,9,1,10,0.00
2014-1-1,64.9,46.7,33.9,38.2,33.6,27.1,90,63,32,30.18,30.08,5,0,6,0.00
2014-1-2,68.3,49.0,36.0,38.0,34.6,30.6,82,61,29,30.17,30.01,8,1,9,0.00